Weather History for KETB - March, 2014

Change the Weather History Date:

Monday, March 3, 2014

  Actual Average Record
Temperature  
Mean Temperature 5 °F -  
Max Temperature 17 °F 36 °F 70 °F (1983)
Min Temperature -7 °F 20 °F -9 °F (1943)
Degree Days  
Heating Degree Days 60    
Moisture  
Dew Point -9 °F    
Average Humidity 50    
Maximum Humidity 65    
Minimum Humidity 35    
Precipitation  
Precipitation 0.00 in - - ()
Sea Level Pressure  
Sea Level Pressure 30.41 in    
Wind  
Wind Speed 5 mph (WSW)    
Max Wind Speed 10 mph    
Max Gust Speed -    
Visibility 10 miles    
Events      
Averages and records for this station are not official NWS values.
T = Trace of Precipitation, MM = Missing Value Source: NWS Daily Summary

Daily Weather History Graph

Daily Weather History Graph

Search for Another Location

Airport or City:

Trip Planner

Search our weather history database for the weather conditions in past years. The results will help you decide how hot, cold, wet, or windy it might be!

Date:

Astronomy

Mar. 03, 2014 Rise Set
Actual Time 6:25 AM CST 5:44 PM CST
Civil Twilight 5:56 AM CST 6:12 PM CST
Nautical Twilight 5:23 AM CST 6:45 PM CST
Astronomical Twilight 4:50 AM CST 7:18 PM CST
Moon 7:28 AM CST (3/3) 8:53 PM CST (3/3)
Length of Visible Light 12h 15m
Length of Day
11h 18m
Waxing Crescent, 8% of the Moon is Illuminated
Mar 3
Waxing Crescent
Mar 8
First Quarter
Mar 16
Full
Mar 23
Last Quarter
Mar 30
New

Hourly Weather History & Observations

Time (CST) Temp. Windchill Dew Point Humidity Pressure Visibility Wind Dir Wind Speed Gust Speed Precip Events Conditions
12:15 AM -2.2 °F -18.0 °F -18.4 °F 46% 30.44 in 10.0 mi NW 9.2 mph - N/A   Clear
12:35 AM -2.2 °F -18.9 °F -18.4 °F 46% 30.42 in 10.0 mi NW 10.4 mph - N/A   Clear
12:55 AM -2.2 °F -16.8 °F -18.4 °F 46% 30.43 in 10.0 mi NW 8.1 mph - N/A   Clear
1:15 AM -4.0 °F -19.0 °F -18.4 °F 50% 30.43 in 10.0 mi NW 8.1 mph - N/A   Clear
1:35 AM -4.0 °F -17.8 °F -18.4 °F 50% 30.43 in 10.0 mi NNW 6.9 mph - N/A   Clear
1:55 AM -4.0 °F -20.2 °F -18.4 °F 50% 30.42 in 10.0 mi NNW 9.2 mph - N/A   Clear
2:15 AM -4.0 °F -19.0 °F -18.4 °F 50% 30.42 in 10.0 mi NNW 8.1 mph - N/A   Clear
2:35 AM -4.0 °F -14.6 °F -18.4 °F 50% 30.42 in 10.0 mi NNW 4.6 mph - N/A   Clear
2:55 AM -4.0 °F -16.3 °F -18.4 °F 50% 30.42 in 10.0 mi NW 5.8 mph - N/A   Clear
3:15 AM -5.8 °F -18.4 °F -18.4 °F 55% 30.42 in 10.0 mi NW 5.8 mph - N/A   Clear
3:35 AM -5.8 °F -18.4 °F -18.4 °F 55% 30.42 in 10.0 mi NW 5.8 mph - N/A   Clear
3:55 AM -5.8 °F -14.5 °F -18.4 °F 55% 30.43 in 10.0 mi NW 3.5 mph - N/A   Clear
4:15 AM -5.8 °F -14.5 °F -18.4 °F 55% 30.43 in 10.0 mi WNW 3.5 mph - N/A   Clear
4:35 AM -5.8 °F - -18.4 °F 55% 30.43 in 10.0 mi Calm Calm - N/A   Clear
4:55 AM -5.8 °F - -18.4 °F 55% 30.44 in 10.0 mi Calm Calm - N/A   Clear
5:15 AM -7.6 °F - -18.4 °F 59% 30.44 in 10.0 mi Calm Calm - N/A   Clear
5:35 AM -5.8 °F - -18.4 °F 55% 30.45 in 10.0 mi Calm Calm - N/A   Clear
5:55 AM -7.6 °F - -16.6 °F 65% 30.45 in 10.0 mi Calm Calm - N/A   Clear
6:15 AM -7.6 °F - -16.6 °F 65% 30.45 in 10.0 mi Calm Calm - N/A   Clear
6:35 AM -7.6 °F - -16.6 °F 65% 30.45 in 10.0 mi Calm Calm - N/A   Clear
6:55 AM -7.6 °F - -16.6 °F 65% 30.45 in 10.0 mi Calm Calm - N/A   Clear
7:15 AM -5.8 °F - -16.6 °F 60% 30.45 in 10.0 mi Calm Calm - N/A   Clear
7:35 AM -4.0 °F - -16.6 °F 55% 30.45 in 10.0 mi Calm Calm - N/A   Clear
7:55 AM -2.2 °F - -16.6 °F 50% 30.46 in 10.0 mi Calm Calm - N/A   Clear
8:15 AM -0.4 °F -8.3 °F -14.8 °F 51% 30.46 in 10.0 mi NW 3.5 mph - N/A   Clear
8:35 AM 1.4 °F -6.2 °F -14.8 °F 47% 30.47 in 10.0 mi NNW 3.5 mph - N/A   Clear
8:55 AM 3.2 °F - -14.8 °F 43% 30.46 in 10.0 mi Calm Calm - N/A   Clear
9:15 AM 3.2 °F - -13.0 °F 47% 30.46 in 10.0 mi Calm Calm - N/A   Clear
9:35 AM 5.0 °F - -13.0 °F 43% 30.47 in 10.0 mi Calm Calm - N/A   Clear
9:55 AM 6.8 °F - -9.4 °F 48% 30.47 in 10.0 mi Calm Calm - N/A   Clear
10:15 AM 8.6 °F - -7.6 °F 48% 30.47 in 10.0 mi Calm Calm - N/A   Clear
10:35 AM 10.4 °F - -4.0 °F 52% 30.46 in 10.0 mi Calm Calm - N/A   Clear
10:55 AM 10.4 °F - -4.0 °F 52% 30.46 in 10.0 mi Calm Calm - N/A   Clear
11:15 AM 12.2 °F 2.9 °F -2.2 °F 53% 30.47 in 10.0 mi SSW 5.8 mph - N/A   Clear
11:35 AM 14.0 °F 6.5 °F -0.4 °F 53% 30.46 in 10.0 mi SSW 4.6 mph - N/A   Clear
11:55 AM 14.0 °F 5.1 °F -0.4 °F 53% 30.45 in 10.0 mi South 5.8 mph - N/A   Clear
12:15 PM 14.0 °F 8.2 °F -0.4 °F 53% 30.43 in 10.0 mi SSW 3.5 mph - N/A   Clear
12:35 PM 15.8 °F 10.2 °F -0.4 °F 49% 30.43 in 10.0 mi SW 3.5 mph - N/A   Clear
12:55 PM 15.8 °F 8.6 °F -0.4 °F 49% 30.43 in 10.0 mi SW 4.6 mph - N/A   Clear
1:15 PM 17.6 °F 9.3 °F -4.0 °F 38% 30.42 in 10.0 mi WSW 5.8 mph - N/A   Clear
1:35 PM 17.6 °F 7.3 °F -4.0 °F 38% 30.41 in 10.0 mi WSW 8.1 mph - N/A   Clear
1:55 PM 17.6 °F 8.2 °F -4.0 °F 38% 30.41 in 10.0 mi WSW 6.9 mph - N/A   Clear
2:15 PM 17.6 °F 6.4 °F -5.8 °F 35% 30.41 in 10.0 mi WSW 9.2 mph - N/A   Clear
2:35 PM 17.6 °F 6.4 °F -5.8 °F 35% 30.42 in 10.0 mi WSW 9.2 mph - N/A   Clear
2:55 PM 17.6 °F 5.7 °F -5.8 °F 35% 30.42 in 10.0 mi WSW 10.4 mph - N/A   Clear
3:15 PM 15.8 °F 4.2 °F -5.8 °F 38% 30.40 in 10.0 mi WSW 9.2 mph - N/A   Clear
3:35 PM 15.8 °F 6.1 °F -5.8 °F 38% 30.40 in 10.0 mi West 6.9 mph - N/A   Clear
3:55 PM 14.0 °F 2.9 °F -4.0 °F 45% 30.40 in 10.0 mi WSW 8.1 mph - N/A   Clear
4:15 PM 14.0 °F 3.9 °F -4.0 °F 45% 30.40 in 10.0 mi West 6.9 mph - N/A   Mostly Cloudy
4:35 PM 14.0 °F 5.1 °F -4.0 °F 45% 30.40 in 10.0 mi West 5.8 mph - N/A   Mostly Cloudy
4:55 PM 14.0 °F 5.1 °F -4.0 °F 45% 30.39 in 10.0 mi WSW 5.8 mph - N/A   Mostly Cloudy
5:15 PM 14.0 °F 5.1 °F -4.0 °F 45% 30.39 in 10.0 mi West 5.8 mph - N/A   Mostly Cloudy
5:35 PM 14.0 °F 3.9 °F -2.2 °F 49% 30.38 in 10.0 mi WSW 6.9 mph - N/A   Overcast
5:55 PM 14.0 °F 8.2 °F -2.2 °F 49% 30.37 in 10.0 mi SW 3.5 mph - N/A   Overcast
6:15 PM 14.0 °F 6.5 °F -4.0 °F 45% 30.37 in 10.0 mi WSW 4.6 mph - N/A   Mostly Cloudy
6:35 PM 14.0 °F 6.5 °F -2.2 °F 49% 30.37 in 10.0 mi SW 4.6 mph - N/A   Mostly Cloudy
6:55 PM 14.0 °F 5.1 °F -4.0 °F 45% 30.36 in 10.0 mi SW 5.8 mph - N/A   Scattered Clouds
7:15 PM 14.0 °F 5.1 °F -4.0 °F 45% 30.35 in 10.0 mi SW 5.8 mph - N/A   Mostly Cloudy
7:35 PM 14.0 °F 5.1 °F -4.0 °F 45% 30.35 in 10.0 mi SW 5.8 mph - N/A   Mostly Cloudy
7:55 PM 14.0 °F 3.9 °F -4.0 °F 45% 30.35 in 10.0 mi WSW 6.9 mph - N/A   Overcast
8:15 PM 14.0 °F 3.9 °F -2.2 °F 49% 30.35 in 10.0 mi SW 6.9 mph - N/A   Overcast
8:35 PM 12.2 °F 2.9 °F -0.4 °F 57% 30.34 in 10.0 mi SW 5.8 mph - N/A   Overcast
8:55 PM 12.2 °F 4.3 °F -0.4 °F 57% 30.34 in 10.0 mi SW 4.6 mph - N/A   Overcast
9:15 PM 12.2 °F 2.9 °F -0.4 °F 57% 30.34 in 10.0 mi SW 5.8 mph - N/A   Overcast
9:35 PM 12.2 °F 4.3 °F -2.2 °F 53% 30.34 in 10.0 mi WSW 4.6 mph - N/A   Overcast
9:55 PM 12.2 °F 6.1 °F -4.0 °F 48% 30.33 in 10.0 mi SW 3.5 mph - N/A   Overcast
10:15 PM 12.2 °F 4.3 °F -4.0 °F 48% 30.33 in 10.0 mi WSW 4.6 mph - N/A   Overcast
10:35 PM 12.2 °F 4.3 °F -2.2 °F 53% 30.32 in 10.0 mi WSW 4.6 mph - N/A   Overcast
10:55 PM 12.2 °F 2.9 °F -2.2 °F 53% 30.31 in 10.0 mi SW 5.8 mph - N/A   Overcast
11:15 PM 12.2 °F 4.3 °F -0.4 °F 57% 30.31 in 10.0 mi SW 4.6 mph - N/A   Overcast
11:35 PM 12.2 °F 4.3 °F -2.2 °F 53% 30.31 in 10.0 mi WSW 4.6 mph - N/A   Overcast
11:55 PM 12.2 °F 2.9 °F -0.4 °F 57% 30.31 in 10.0 mi SW 5.8 mph - N/A   Overcast